Terug naar catalogus

FENGYUN 1C DEB

ActiefSSO
NORAD 29894·DEBRIS·🇨🇳 China

Gelanceerd May 10, 1999 vanaf Taiyuan Satellite Launch Center

Loading…

Volgende Passages (komende 24 uur)

TLE

VersSource: Space-Track

Epoch: Sep 14, 2026, 20:00 UTC

1 29894U 99025GQ  26257.83375191  .00000230  00000-0  23230-3 0  9994
2 29894  99.4564 317.9721 0168201  36.6252  14.1451 13.81270794988882

Volg FENGYUN 1C DEB in realtime met AllMySat

Download on the App Store